Flag for U.S.A. Weather past 2 weeks in Evansville, Indiana, U.S.A.

Now
66 °F

Clear.


Feels Like: 66 °F
Forecast: 65 / 85 °F
Wind: No wind

Location: Evansville Regional Airport

Current Time: Oct 2, 2014 at 2:03:29 AM

Latest Report: Oct 2, 2014 at 12:54 AM


Visibility: 10 mi

Pressure: 29.93 "Hg

Humidity: 73%

Dew point: 57 °F

Location of EvansvilleLocation

Historic Weather in Evansville — Graph

°F

Evansville temperature yesterday

Maximum temperature yesterday: 86 °F (at 2:54 PM)
Minimum temperature yesterday: 59 °F (at 4:54 AM)
Average temperature yesterday: 71 °F

Past Weeks' High & Low Weather Summary

 TemperatureHumidityPressure
High87 °F (Sep 29, 3:54 PM)93% (Sep 17, 12:54 AM)30.33 "Hg (Sep 17, 12:54 AM)
Low46 °F (Sep 17, 6:54 AM)27% (Sep 29, 3:54 PM)29.87 "Hg (Sep 30, 4:54 PM)
Average67 °F67%30.09 "Hg
* Reported Sep 17 12:54 AM — Oct 2 12:54 AM, Evansville, Weather by CustomWeather, © 2014

Note: Actual official high and low records may vary slightly from our data, if they occured in-between our weather recording intervals... More about our weather records

Advertising

Evansville weather history for previous 24 hours

 ConditionsComfort  
Time TempWeatherWind HumidityBarometerVisibility
12:54 AM
Oct 2
66 °FClear.No wind73%29.93 "Hg10 mi
11:54 PM
Oct 1
67 °FClear.No wind73%29.93 "Hg10 mi
10:54 PM69 °FClear.3 mph66%29.92 "Hg10 mi
9:54 PM71 °FClear.No wind63%29.92 "Hg10 mi
8:54 PM69 °FClear.No wind73%29.91 "Hg10 mi
7:54 PM73 °FClear.No wind64%29.90 "Hg10 mi
6:54 PM78 °FClear.No wind50%29.89 "Hg10 mi
5:54 PM83 °FSunny.5 mph40%29.89 "Hg10 mi
4:54 PM85 °FSunny.6 mph36%29.88 "Hg10 mi
3:54 PM86 °FSunny.7 mph33%29.88 "Hg10 mi
2:54 PM86 °FScattered clouds.5 mph35%29.90 "Hg10 mi
1:54 PM84 °FSunny.6 mph38%29.91 "Hg10 mi
12:54 PM83 °FSunny.6 mph41%29.94 "Hg10 mi
11:54 AM79 °FSunny.5 mph50%29.96 "Hg10 mi
10:54 AM74 °FPartly sunny.5 mph60%29.97 "Hg10 mi
9:54 AM70 °FPartly sunny.5 mph73%29.98 "Hg8 mi
8:54 AM65 °FPartly sunny.3 mph85%29.97 "Hg5 mi
7:54 AM61 °FFog.3 mph90%29.96 "Hg3 mi
6:54 AM59 °FFog.5 mph93%29.95 "Hg3 mi
5:54 AM59 °FFog.5 mph93%29.94 "Hg6 mi
4:54 AM59 °FClear.3 mph93%29.93 "Hg7 mi
3:54 AM62 °FClear.3 mph86%29.92 "Hg8 mi
2:54 AM62 °FClear.7 mph90%29.91 "Hg7 mi
Weather by CustomWeather, © 2014

See weather overviewHow to use our weather pages